Andalusia, AL

2:53 PM CDT on May 24, 2018 (GMT -0500)
Andalusia

Weather History for K79J - December, 2013

Change the Weather History Date:

Tuesday, December 10, 2013

  Actual Average (KCEW) Record (KCEW)
Temperature  
Mean Temperature 54 °F -  
Max Temperature 69 °F 62 °F 81 °F (2007)
Min Temperature 39 °F 38 °F 19 °F (2010)
Degree Days  
Heating Degree Days 11    
Growing Degree Days 4 (Base 50)    
Moisture  
Dew Point 49 °F    
Average Humidity 83    
Maximum Humidity 94    
Minimum Humidity 56    
Precipitation  
Precipitation 0.16 in - - ()
Sea Level Pressure  
Sea Level Pressure 30.16 in    
Wind  
Wind Speed 7 mph (North)    
Max Wind Speed 21 mph    
Max Gust Speed 34 mph    
Visibility 7 miles    
Events Fog , Rain    
Averages and records for this station are not official NWS values.
T = Trace of Precipitation, MM = Missing Value Source: NWS Daily Summary

Daily Weather History Graph

Daily Weather History Graph

Search for Another Location

Airport or City:

Astronomy

Dec. 10, 2013 Rise Set
Actual Time 6:33 AM CST 4:43 PM CST
Civil Twilight 6:07 AM CST 5:09 PM CST
Nautical Twilight 5:36 AM CST 5:40 PM CST
Astronomical Twilight 5:07 AM CST 6:09 PM CST
Moon 12:24 PM CST (12/10) 12:13 AM CST (12/10)
Length of Visible Light 11h 02m
Length of Day
10h 09m
Waxing Gibbous, 62% of the Moon is Illuminated
Dec 10
Waxing Gibbous
Dec 17
Full
Dec 25
Last Quarter
Jan 1
New
Jan 7
First Quarter

Hourly Weather History & Observations

Time (CST) Temp. Windchill Dew Point Humidity Pressure Visibility Wind Dir Wind Speed Gust Speed Precip Events Conditions
12:04 AM 62.6 °F - 59.0 °F 88% 30.04 in 10.0 mi Calm Calm - N/A   Mostly Cloudy
12:56 AM 62.1 °F - 59.0 °F 90% 30.02 in 10.0 mi Calm Calm - N/A   Clear
1:17 AM 62.6 °F - 59.0 °F 88% 30.03 in 8.0 mi Calm Calm - N/A   Partly Cloudy
1:24 AM 62.6 °F - 59.0 °F 88% 30.03 in 7.0 mi South 3.5 mph - N/A   Scattered Clouds
1:26 AM 62.6 °F - 60.8 °F 94% 30.02 in 7.0 mi Calm Calm - N/A   Mostly Cloudy
1:43 AM 64.4 °F - 62.6 °F 94% 30.02 in 4.0 mi Variable 3.5 mph - N/A   Overcast
1:56 AM 66.0 °F - 64.0 °F 93% 30.01 in 3.0 mi SW 5.8 mph - N/A   Overcast
2:06 AM 66.2 °F - 64.4 °F 94% 30.02 in 1.8 mi SW 5.8 mph - N/A   Overcast
2:11 AM 66.2 °F - 64.4 °F 94% 30.02 in 1.0 mi SW 6.9 mph - N/A   Overcast
2:20 AM 66.2 °F - 64.4 °F 94% 30.02 in 0.8 mi Variable 5.8 mph - N/A   Mist
2:56 AM 66.9 °F - 64.9 °F 93% 30.03 in 1.0 mi WSW 4.6 mph - N/A   Mist
3:05 AM 66.2 °F - 64.4 °F 94% 30.03 in 1.2 mi SW 4.6 mph - N/A   Overcast
3:12 AM 66.2 °F - 64.4 °F 94% 30.03 in 2.0 mi Variable 5.8 mph - N/A   Overcast
3:24 AM 68.0 °F - 64.4 °F 88% 30.03 in 4.0 mi Variable 4.6 mph - N/A   Overcast
3:52 AM 69.8 °F - 66.2 °F 88% 30.03 in 7.0 mi WSW 6.9 mph - N/A   Overcast
3:56 AM 69.1 °F - 66.0 °F 90% 30.02 in 7.0 mi SW 4.6 mph - N/A   Overcast
4:26 AM 66.2 °F - 62.6 °F 88% 30.04 in 1.8 mi NW 12.7 mph 17.3 mph N/A   Overcast
4:29 AM 66.2 °F - 62.6 °F 88% 30.05 in 1.0 mi NNW 12.7 mph - N/A   Overcast
4:34 AM 64.4 °F - 62.6 °F 94% 30.05 in 0.5 mi NW 17.3 mph - N/A Fog Fog
4:48 AM 62.6 °F - 60.8 °F 94% 30.07 in 1.2 mi NW 16.1 mph - N/A   Overcast
4:56 AM 61.0 °F - 59.0 °F 93% 30.07 in 1.8 mi NNW 18.4 mph - 0.01 in Rain Light Rain
5:03 AM 60.8 °F - 57.2 °F 88% 30.09 in 2.0 mi North 18.4 mph 24.2 mph 0.00 in Rain Light Rain
5:14 AM 55.4 °F - 51.8 °F 88% 30.12 in 4.0 mi North 20.7 mph 34.5 mph 0.00 in Rain Light Rain
5:23 AM 53.6 °F - 48.2 °F 82% 30.13 in 5.0 mi North 18.4 mph 28.8 mph 0.00 in Rain Light Rain
5:35 AM 51.8 °F - 48.2 °F 88% 30.12 in 9.0 mi North 11.5 mph - 0.00 in Rain Light Rain
5:56 AM 51.1 °F - 48.0 °F 89% 30.13 in 9.0 mi NNW 8.1 mph - 0.00 in Rain Light Rain
6:04 AM 51.8 °F - 48.2 °F 88% 30.14 in 7.0 mi NNW 6.9 mph - 0.01 in Rain Light Rain
6:09 AM 51.8 °F - 48.2 °F 88% 30.13 in 8.0 mi NNW 6.9 mph - 0.01 in   Overcast
6:36 AM 50.0 °F - 46.4 °F 87% 30.16 in 8.0 mi North 15.0 mph 23.0 mph 0.01 in Rain Light Rain
6:52 AM 50.0 °F - 46.4 °F 87% 30.17 in 2.0 mi NNW 13.8 mph - 0.06 in Rain Rain
6:56 AM 50.0 °F - 46.0 °F 86% 30.17 in 2.5 mi North 10.4 mph 20.7 mph 0.07 in Rain Heavy Rain
7:06 AM 48.2 °F - 44.6 °F 87% 30.17 in 1.8 mi North 11.5 mph - 0.07 in Rain Heavy Rain
7:11 AM 48.2 °F - 44.6 °F 87% 30.17 in 3.0 mi North 11.5 mph - 0.08 in Rain Heavy Rain
7:38 AM 48.2 °F - 44.6 °F 87% 30.18 in 10.0 mi North 9.2 mph - 0.08 in   Overcast
7:56 AM 50.0 °F - 45.0 °F 83% 30.18 in 10.0 mi North 8.1 mph - 0.08 in   Overcast
8:35 AM 50.0 °F - 44.6 °F 82% 30.23 in 10.0 mi North 11.5 mph - N/A   Mostly Cloudy
8:43 AM 48.2 °F - 44.6 °F 87% 30.23 in 10.0 mi North 17.3 mph 23.0 mph N/A   Mostly Cloudy
8:56 AM 48.0 °F - 43.0 °F 83% 30.25 in 10.0 mi NNW 18.4 mph - N/A   Overcast
9:56 AM 45.0 °F 37.9 °F 39.9 °F 82% 30.29 in 10.0 mi North 16.1 mph - N/A   Overcast
10:51 AM 44.6 °F 36.9 °F 39.2 °F 81% 30.31 in 10.0 mi North 18.4 mph 26.5 mph N/A   Overcast
10:56 AM 45.0 °F 38.9 °F 37.9 °F 76% 30.31 in 10.0 mi NNE 12.7 mph 26.5 mph N/A   Overcast
11:56 AM 46.0 °F 40.2 °F 37.9 °F 73% 30.29 in 10.0 mi North 12.7 mph 20.7 mph N/A   Overcast
12:25 PM 46.4 °F 40.7 °F 37.4 °F 71% 30.28 in 10.0 mi NNE 12.7 mph 21.9 mph N/A   Overcast
12:56 PM 46.9 °F - 37.0 °F 68% 30.27 in 10.0 mi NE 12.7 mph 19.6 mph N/A   Overcast
1:37 PM 50.0 °F - 37.4 °F 62% 30.26 in 10.0 mi NNE 11.5 mph 18.4 mph N/A   Scattered Clouds
1:56 PM 50.0 °F - 37.0 °F 61% 30.25 in 10.0 mi North 10.4 mph 19.6 mph N/A   Clear
2:56 PM 51.1 °F - 36.0 °F 56% 30.25 in 10.0 mi NE 9.2 mph 19.6 mph N/A   Clear
3:56 PM 50.0 °F - 37.0 °F 61% 30.25 in 10.0 mi NNE 11.5 mph 18.4 mph N/A   Clear
4:56 PM 48.0 °F - 37.0 °F 66% 30.28 in 10.0 mi NNE 6.9 mph - N/A   Clear
5:56 PM 46.0 °F 41.9 °F 36.0 °F 68% 30.30 in 10.0 mi NNE 8.1 mph - N/A   Clear
6:56 PM 44.1 °F 41.5 °F 35.1 °F 71% 30.32 in 10.0 mi NNE 4.6 mph - N/A   Clear
7:56 PM 42.1 °F 39.2 °F 34.0 °F 73% 30.34 in 10.0 mi NNE 4.6 mph - N/A   Clear
8:56 PM 42.1 °F 39.2 °F 34.0 °F 73% 30.35 in 10.0 mi NNE 4.6 mph - N/A   Clear
9:56 PM 41.0 °F 38.0 °F 33.1 °F 73% 30.35 in 10.0 mi NE 4.6 mph - N/A   Clear
10:56 PM 39.9 °F 36.7 °F 32.0 °F 73% 30.35 in 10.0 mi ENE 4.6 mph - N/A   Clear
11:56 PM 39.0 °F 35.7 °F 32.0 °F 76% 30.34 in 10.0 mi ENE 4.6 mph - N/A   Clear